When you browse on this site, cookies collect data to enhance your experience and personalize the content and advertising you see.
Visit our Privacy Policy to learn more. By continuing to use the site, you agree to this use of cookies and data.
  • în România
  • Lista ţărilor
  • Pe 7 zile
  • Temperatura apei
  • Meteo pe hartă
  • Widget-uri
  • user-avatar
    Intrare

    Meteo pe oră la Macapa

    Astăzi, 12 Noiembrie, Marţi

    Timp Temperatura Precipitaţii Vânt Presiune Umiditate
    00:00 +28°C° 0.5 mm 4 m/s 756 mmHg 87%
    01:00 +27°C° 0.1 mm 3 m/s 755 mmHg 89%
    02:00 +27°C° 0.1 mm 3 m/s 755 mmHg 90%
    03:00 +27°C° 0.1 mm 2 m/s 755 mmHg 91%
    04:00 +26°C° 0 mm 2 m/s 755 mmHg 91%
    05:00 +26°C° 0 mm 2 m/s 755 mmHg 92%
    06:00 +26°C° 0 mm 2 m/s 755 mmHg 92%
    07:00 +28°C° 0 mm 2 m/s 756 mmHg 82%
    08:00 +30°C° 0 mm 2 m/s 756 mmHg 72%
    09:00 +32°C° 0 mm 2 m/s 757 mmHg 62%
    10:00 +35°C° 0 mm 3 m/s 756 mmHg 55%
    11:00 +37°C° 0 mm 3 m/s 756 mmHg 48%
    12:00 +39°C° 0 mm 3 m/s 756 mmHg 41%
    13:00 +39°C° 0 mm 3 m/s 755 mmHg 40%
    14:00 +39°C° 0 mm 3 m/s 754 mmHg 39%
    15:00 +40°C° 0 mm 4 m/s 753 mmHg 38%
    16:00 +37°C° 0 mm 4 m/s 753 mmHg 43%
    17:00 +36°C° 0 mm 4 m/s 753 mmHg 49%
    18:00 +34°C° 0 mm 5 m/s 753 mmHg 54%
    19:00 +33°C° 0 mm 5 m/s 754 mmHg 60%
    20:00 +32°C° 0 mm 5 m/s 754 mmHg 65%
    21:00 +29°C° 0 mm 5 m/s 755 mmHg 71%
    22:00 +29°C° 0 mm 4 m/s 755 mmHg 74%
    23:00 +29°C° 0 mm 4 m/s 755 mmHg 77%

    Mâine, 13 Noiembrie, Miercuri

    Timp Temperatura Precipitaţii Vânt Presiune Umiditate
    00:00 +28°C° 0 mm 3 m/s 755 mmHg 80%
    01:00 +28°C° 0 mm 3 m/s 755 mmHg 83%
    02:00 +27°C° 0 mm 3 m/s 755 mmHg 85%
    03:00 +27°C° 0 mm 3 m/s 755 mmHg 87%
    04:00 +27°C° 0 mm 3 m/s 755 mmHg 88%
    05:00 +26°C° 0 mm 3 m/s 755 mmHg 90%
    06:00 +26°C° 0 mm 3 m/s 755 mmHg 91%
    07:00 +28°C° 0 mm 3 m/s 756 mmHg 81%
    08:00 +30°C° 0 mm 3 m/s 756 mmHg 70%
    09:00 +33°C° 0 mm 3 m/s 757 mmHg 60%
    10:00 +35°C° 0 mm 3 m/s 757 mmHg 52%
    11:00 +37°C° 0 mm 3 m/s 756 mmHg 45%
    12:00 +40°C° 0 mm 4 m/s 756 mmHg 37%
    13:00 +40°C° 0 mm 4 m/s 755 mmHg 37%
    14:00 +40°C° 0 mm 5 m/s 754 mmHg 37%
    15:00 +40°C° 0 mm 5 m/s 753 mmHg 37%
    16:00 +37°C° 0 mm 5 m/s 753 mmHg 45%
    17:00 +35°C° 0 mm 5 m/s 753 mmHg 53%
    18:00 +33°C° 0 mm 6 m/s 753 mmHg 61%
    19:00 +32°C° 0 mm 5 m/s 754 mmHg 66%
    20:00 +30°C° 0 mm 5 m/s 755 mmHg 71%
    21:00 +29°C° 0 mm 5 m/s 755 mmHg 76%
    22:00 +29°C° 0 mm 4 m/s 756 mmHg 78%
    23:00 +29°C° 0 mm 4 m/s 756 mmHg 79%

    Poimâine, 14 Noiembrie, Joi

    Timp Temperatura Precipitaţii Vânt Presiune Umiditate
    00:00 +28°C° 0 mm 3 m/s 756 mmHg 81%
    01:00 +28°C° 0 mm 3 m/s 755 mmHg 82%
    02:00 +28°C° 0 mm 3 m/s 755 mmHg 84%
    03:00 +27°C° 0 mm 3 m/s 754 mmHg 85%
    04:00 +27°C° 0 mm 3 m/s 755 mmHg 86%
    05:00 +27°C° 0 mm 3 m/s 755 mmHg 87%
    06:00 +27°C° 0 mm 2 m/s 755 mmHg 88%
    07:00 +29°C° 0 mm 3 m/s 756 mmHg 79%
    08:00 +30°C° 0 mm 3 m/s 756 mmHg 70%
    09:00 +33°C° 0 mm 4 m/s 757 mmHg 61%
    10:00 +35°C° 0 mm 4 m/s 756 mmHg 57%
    11:00 +36°C° 0 mm 4 m/s 756 mmHg 52%
    12:00 +37°C° 0 mm 4 m/s 756 mmHg 47%
    13:00 +37°C° 0 mm 5 m/s 755 mmHg 46%
    14:00 +39°C° 0 mm 5 m/s 754 mmHg 45%
    15:00 +39°C° 0 mm 5 m/s 753 mmHg 44%
    16:00 +36°C° 0 mm 5 m/s 753 mmHg 49%
    17:00 +34°C° 0 mm 5 m/s 754 mmHg 54%
    18:00 +33°C° 0 mm 5 m/s 754 mmHg 59%
    19:00 +32°C° 0 mm 5 m/s 754 mmHg 65%
    20:00 +30°C° 0 mm 5 m/s 755 mmHg 70%
    21:00 +29°C° 0 mm 5 m/s 756 mmHg 75%
    22:00 +29°C° 0 mm 4 m/s 756 mmHg 77%
    23:00 +28°C° 0 mm 4 m/s 756 mmHg 79%

    15 Noiembrie, Vineri

    Timp Temperatura Precipitaţii Vânt Presiune Umiditate
    00:00 +28°C° 0 mm 4 m/s 756 mmHg 81%
    01:00 +27°C° 0 mm 3 m/s 755 mmHg 83%
    02:00 +27°C° 0 mm 3 m/s 755 mmHg 85%
    03:00 +27°C° 0 mm 3 m/s 754 mmHg 87%
    04:00 +26°C° 0 mm 3 m/s 754 mmHg 89%
    05:00 +26°C° 0 mm 3 m/s 755 mmHg 90%
    06:00 +26°C° 0 mm 2 m/s 755 mmHg 92%
    07:00 +28°C° 0 mm 3 m/s 756 mmHg 81%
    08:00 +30°C° 0 mm 3 m/s 756 mmHg 71%
    09:00 +33°C° 0 mm 3 m/s 757 mmHg 60%
    10:00 +35°C° 0 mm 3 m/s 756 mmHg 54%
    11:00 +36°C° 0 mm 3 m/s 756 mmHg 47%
    12:00 +38°C° 0 mm 4 m/s 756 mmHg 40%
    13:00 +38°C° 0 mm 4 m/s 755 mmHg 39%
    14:00 +38°C° 0 mm 4 m/s 754 mmHg 39%
    15:00 +39°C° 0 mm 5 m/s 753 mmHg 38%
    16:00 +37°C° 0 mm 5 m/s 753 mmHg 43%
    17:00 +35°C° 0 mm 5 m/s 753 mmHg 48%
    18:00 +34°C° 0 mm 5 m/s 753 mmHg 52%
    19:00 +32°C° 0 mm 5 m/s 753 mmHg 60%
    20:00 +30°C° 0 mm 5 m/s 754 mmHg 67%
    21:00 +29°C° 0 mm 5 m/s 754 mmHg 74%
    22:00 +28°C° 0 mm 5 m/s 754 mmHg 77%
    23:00 +28°C° 0 mm 4 m/s 754 mmHg 81%

    16 Noiembrie, Sâmbătă

    Timp Temperatura Precipitaţii Vânt Presiune Umiditate
    00:00 +27°C° 0 mm 4 m/s 754 mmHg 84%
    01:00 +27°C° 0 mm 3 m/s 754 mmHg 87%
    02:00 +26°C° 0 mm 3 m/s 754 mmHg 89%
    03:00 +26°C° 0 mm 3 m/s 753 mmHg 92%
    04:00 +26°C° 0 mm 3 m/s 754 mmHg 93%
    05:00 +25°C° 0 mm 3 m/s 754 mmHg 93%
    06:00 +25°C° 0 mm 3 m/s 754 mmHg 94%
    07:00 +27°C° 0 mm 3 m/s 754 mmHg 84%
    08:00 +29°C° 0 mm 3 m/s 755 mmHg 74%
    09:00 +33°C° 0 mm 3 m/s 755 mmHg 64%
    10:00 +34°C° 0 mm 3 m/s 755 mmHg 58%
    11:00 +36°C° 0 mm 4 m/s 754 mmHg 51%
    12:00 +38°C° 0 mm 4 m/s 754 mmHg 45%
    13:00 +38°C° 0 mm 4 m/s 753 mmHg 43%
    14:00 +38°C° 0 mm 4 m/s 752 mmHg 42%
    15:00 +40°C° 0 mm 4 m/s 751 mmHg 40%
    16:00 +37°C° 0 mm 5 m/s 751 mmHg 47%
    17:00 +35°C° 0 mm 5 m/s 751 mmHg 53%
    18:00 +33°C° 0 mm 5 m/s 751 mmHg 60%
    19:00 +32°C° 0 mm 5 m/s 752 mmHg 65%
    20:00 +30°C° 0 mm 5 m/s 753 mmHg 70%
    21:00 +29°C° 0 mm 4 m/s 753 mmHg 75%
    22:00 +29°C° 0 mm 4 m/s 754 mmHg 77%
    23:00 +28°C° 0 mm 4 m/s 754 mmHg 79%

    17 Noiembrie, Duminică

    Timp Temperatura Precipitaţii Vânt Presiune Umiditate
    00:00 +28°C° 0 mm 3 m/s 754 mmHg 82%
    01:00 +28°C° 0 mm 3 m/s 754 mmHg 84%
    02:00 +27°C° 0 mm 2 m/s 753 mmHg 87%
    03:00 +27°C° 0 mm 2 m/s 753 mmHg 89%
    04:00 +27°C° 0.1 mm 1 m/s 754 mmHg 88%
    05:00 +27°C° 0.1 mm 1 m/s 754 mmHg 87%
    06:00 +28°C° 0.1 mm 1 m/s 754 mmHg 86%
    07:00 +29°C° 0.1 mm 1 m/s 755 mmHg 81%
    08:00 +30°C° 0.1 mm 2 m/s 755 mmHg 77%
    09:00 +31°C° 0.1 mm 2 m/s 756 mmHg 72%
    10:00 +32°C° 0.1 mm 2 m/s 756 mmHg 66%
    11:00 +34°C° 0.1 mm 3 m/s 755 mmHg 60%
    12:00 +35°C° 0.1 mm 3 m/s 755 mmHg 54%
    13:00 +35°C° 0.1 mm 3 m/s 754 mmHg 54%
    14:00 +35°C° 0.1 mm 3 m/s 753 mmHg 53%
    15:00 +35°C° 0.1 mm 3 m/s 752 mmHg 53%
    16:00 +34°C° 0.6 mm 3 m/s 753 mmHg 60%
    17:00 +31°C° 0.6 mm 3 m/s 753 mmHg 68%
    18:00 +30°C° 0.6 mm 3 m/s 753 mmHg 75%
    19:00 +29°C° 0.9 mm 3 m/s 754 mmHg 78%
    20:00 +28°C° 0.9 mm 3 m/s 754 mmHg 81%
    21:00 +28°C° 0.9 mm 3 m/s 755 mmHg 85%
    22:00 +27°C° 0.2 mm 3 m/s 755 mmHg 86%
    23:00 +27°C° 0.2 mm 2 m/s 755 mmHg 87%
    Arată mai mult